Voreifelwetter - Wetterstation Drove - Standort 5043'47" - 0630'49"
Wetterdaten: aktuell Mittwoch, 08.04.2020 06:15
Datum Zeit Temp. A. Feuchte A. Luftdruck Regen Wind Richtung Richtung Sonnenschein Helligkeit Taupunkt Windchill
08.04.2020 06:15 5,9 C 88 % 1024,3 hPa 0,0 mm 0,0 km/h (0 Bft) S-SO 150 0 min 0 lux 4,1 C 5,9 C
08.04.2020 06:00 6,1 C 88 % 1024,3 hPa 0,0 mm 0,0 km/h (0 Bft) S-SO 150 0 min 0 lux 4,3 C 6,1 C
08.04.2020 05:45 6,1 C 88 % 1024,3 hPa 0,0 mm 0,0 km/h (0 Bft) S-SO 150 0 min 0 lux 4,3 C 6,1 C
08.04.2020 05:30 6,3 C 88 % 1024,3 hPa 0,0 mm 0,0 km/h (0 Bft) S-SO 150 0 min 0 lux 4,5 C 6,3 C
08.04.2020 05:15 6,4 C 87 % 1024,2 hPa 0,0 mm 0,0 km/h (0 Bft) S-SO 150 0 min 0 lux 4,4 C 6,4 C
08.04.2020 05:00 6,6 C 87 % 1025,3 hPa 0,0 mm 0,0 km/h (0 Bft) S-SO 150 0 min 0 lux 4,6 C 6,6 C
08.04.2020 04:45 6,7 C 87 % 1025,2 hPa 0,0 mm 0,0 km/h (0 Bft) S-SO 150 0 min 0 lux 4,7 C 6,7 C
08.04.2020 04:30 6,7 C 86 % 1025,2 hPa 0,0 mm 0,0 km/h (0 Bft) S-SO 150 0 min 0 lux 4,5 C 6,7 C
08.04.2020 04:15 6,8 C 86 % 1025,2 hPa 0,0 mm 0,0 km/h (0 Bft) S-SO 150 0 min 0 lux 4,6 C 6,8 C
08.04.2020 04:00 7,0 C 86 % 1025,2 hPa 0,0 mm 0,0 km/h (0 Bft) S-SO 150 0 min 0 lux 4,8 C 7,0 C
08.04.2020 03:45 7,2 C 85 % 1025,2 hPa 0,0 mm 0,0 km/h (0 Bft) S-SO 150 0 min 0 lux 4,9 C 7,2 C
08.04.2020 03:30 7,2 C 85 % 1025,2 hPa 0,0 mm 0,0 km/h (0 Bft) S-SO 150 0 min 0 lux 4,9 C 7,2 C
08.04.2020 03:15 7,2 C 85 % 1025,2 hPa 0,0 mm 0,0 km/h (0 Bft) S-SO 150 0 min 0 lux 4,9 C 7,2 C
08.04.2020 03:00 7,4 C 85 % 1025,2 hPa 0,0 mm 0,0 km/h (0 Bft) S-SO 150 0 min 0 lux 5,0 C 7,4 C
08.04.2020 02:45 7,6 C 84 % 1025,2 hPa 0,0 mm 0,0 km/h (0 Bft) S-SO 150 0 min 0 lux 5,1 C 7,6 C
08.04.2020 02:30 7,7 C 84 % 1026,2 hPa 0,0 mm 0,0 km/h (0 Bft) S-SO 150 0 min 0 lux 5,2 C 7,7 C
08.04.2020 02:15 7,8 C 83 % 1026,2 hPa 0,0 mm 0,0 km/h (0 Bft) S-SO 150 0 min 0 lux 5,1 C 7,8 C
08.04.2020 02:00 8,0 C 83 % 1026,2 hPa 0,0 mm 0,0 km/h (0 Bft) S-SO 150 0 min 0 lux 5,3 C 8,0 C
08.04.2020 01:45 8,1 C 82 % 1026,2 hPa 0,0 mm 0,0 km/h (0 Bft) S-SO 150 0 min 0 lux 5,2 C 8,1 C
08.04.2020 01:30 8,3 C 82 % 1026,1 hPa 0,0 mm 0,0 km/h (0 Bft) S-SO 150 0 min 0 lux 5,4 C 8,3 C
08.04.2020 01:15 8,5 C 82 % 1026,1 hPa 0,0 mm 0,0 km/h (0 Bft) S-SO 150 0 min 0 lux 5,6 C 8,5 C
08.04.2020 01:00 8,6 C 81 % 1026,1 hPa 0,0 mm 0,0 km/h (0 Bft) S-SO 150 0 min 0 lux 5,5 C 8,6 C
08.04.2020 00:45 8,6 C 80 % 1026,1 hPa 0,0 mm 0,0 km/h (0 Bft) S-SO 150 0 min 0 lux 5,3 C 8,6 C
08.04.2020 00:30 8,8 C 79 % 1026,1 hPa 0,0 mm 0,0 km/h (0 Bft) S-SO 150 0 min 0 lux 5,4 C 8,8 C
08.04.2020 00:15 9,1 C 78 % 1026,1 hPa 0,0 mm 0,0 km/h (0 Bft) S-SO 150 0 min 0 lux 5,5 C 9,1 C
08.04.2020 00:00 9,5 C 78 % 1026,0 hPa 0,0 mm 0,0 km/h (0 Bft) S-SO 150 0 min 0 lux 5,9 C 9,5 C
_ Min-Zeit 06:15 00:00 05:15 - 00:00 - - - - 06:15 06:15
Minimum _ 5,9 C 78 % 1024,2 hPa - 0,0 km/h (0 Bft) - - - - 4,1 C 5,9 C
_ Max-Zeit 00:00 05:30 02:30 00:00 00:00 - - 00:00 00:00 00:00 00:00
Maximum _ 9,5 C 88 % 1026,2 hPa 0,0 mm 0,0 km/h
S-SO (0 Bft)
- - 0 min 0,000 klux 5,9 C 9,5 C
Durchschnitt _ 7,5 C 84 % 1025,4 hPa #0,0 mm 0,0 km/h (0 Bft) - - - #0 min. 0,000 klux 5,0 C 7,5 C